Location: Spruce Knob
(38.6995°N, 79.5330°W)
Time: 18:31:58
(UTC-05:00)

BlueWalker 3 - Pass Details

Date: 15 December 2022
Orbit: 499 x 517 km, 53.2° (Epoch: 28 January)

Event Time Altitude Azimuth Distance (km) Brightness Sun altitude
Rises 18:11:59 0° 293° (WNW) 2,619 6.4 -14.0°
Reaches altitude 10° 18:14:58 10° 269° (W) 1,723 5.9 -14.6°
Maximum altitude 18:17:10 15° 235° (SW) 1,445 5.4 -15.0°
Drops below altitude 10° 18:19:21 10° 200° (SSW) 1,708 5.1 -15.4°
Sets 18:22:18 0° 176° (S) 2,582 5.7 -16.0°
